TimeAKDT,TemperatureF,Dew PointF,Humidity,Sea Level PressureIn,VisibilityMPH,Wind Direction,Wind SpeedMPH,Gust SpeedMPH,PrecipitationIn,Events,Conditions,WindDirDegrees,DateUTC
12:43 AM,46.4,42.8,87,29.90,10.0,NNW,3.5,-,N/A,,Overcast,330,2013-10-06 08:43:00
12:53 AM,46.0,43.0,89,29.88,10.0,Calm,Calm,-,N/A,,Overcast,0,2013-10-06 08:53:00
1:53 AM,46.0,43.0,89,29.88,10.0,Calm,Calm,-,N/A,,Overcast,0,2013-10-06 09:53:00
2:44 AM,46.4,42.8,87,29.84,10.0,Calm,Calm,-,N/A,,Overcast,0,2013-10-06 10:44:00
2:53 AM,46.0,43.0,89,29.85,10.0,Calm,Calm,-,N/A,,Overcast,0,2013-10-06 10:53:00
3:11 AM,46.4,42.8,87,29.84,10.0,Calm,Calm,-,N/A,,Overcast,0,2013-10-06 11:11:00
3:53 AM,45.0,42.1,90,29.83,10.0,Calm,Calm,-,N/A,,Overcast,0,2013-10-06 11:53:00
4:06 AM,44.6,42.8,93,29.82,10.0,Calm,Calm,-,N/A,,Mostly Cloudy,0,2013-10-06 12:06:00
4:14 AM,44.6,41.0,87,29.81,10.0,Calm,Calm,-,N/A,,Mostly Cloudy,0,2013-10-06 12:14:00
4:26 AM,44.6,41.0,87,29.82,10.0,NE,3.5,-,N/A,,Mostly Cloudy,50,2013-10-06 12:26:00
4:53 AM,43.0,39.9,89,29.80,10.0,Calm,Calm,-,N/A,,Scattered Clouds,0,2013-10-06 12:53:00
5:53 AM,41.0,39.0,93,29.79,10.0,Calm,Calm,-,N/A,,Clear,0,2013-10-06 13:53:00
6:53 AM,39.9,37.0,89,29.76,10.0,NNE,3.5,-,N/A,,Partly Cloudy,20,2013-10-06 14:53:00
7:53 AM,39.9,37.0,89,29.76,10.0,Calm,Calm,-,N/A,,Clear,0,2013-10-06 15:53:00
8:53 AM,41.0,39.0,93,29.74,10.0,Calm,Calm,-,N/A,,Clear,0,2013-10-06 16:53:00
9:53 AM,43.0,39.9,89,29.71,10.0,Calm,Calm,-,N/A,,Clear,0,2013-10-06 17:53:00
10:53 AM,48.0,41.0,77,29.70,10.0,Variable,3.5,-,N/A,,Clear,0,2013-10-06 18:53:00
11:53 AM,51.1,39.0,63,29.67,10.0,Calm,Calm,-,N/A,,Clear,0,2013-10-06 19:53:00
12:53 PM,55.9,33.1,42,29.66,10.0,NNE,9.2,-,N/A,,Clear,30,2013-10-06 20:53:00
1:53 PM,55.9,33.1,42,29.63,10.0,NNE,8.1,-,N/A,,Clear,20,2013-10-06 21:53:00
2:53 PM,57.0,32.0,39,29.61,10.0,NNE,8.1,-,N/A,,Clear,20,2013-10-06 22:53:00
3:53 PM,57.9,33.1,39,29.59,10.0,NNE,4.6,-,N/A,,Clear,20,2013-10-06 23:53:00
4:53 PM,55.0,34.0,45,29.59,10.0,Variable,5.8,-,N/A,,Clear,0,2013-10-07 00:53:00
5:53 PM,50.0,36.0,59,29.58,10.0,Calm,Calm,-,N/A,,Clear,0,2013-10-07 01:53:00
6:53 PM,45.0,37.0,74,29.58,10.0,NE,4.6,-,N/A,,Clear,40,2013-10-07 02:53:00
7:53 PM,43.0,37.0,80,29.58,10.0,NE,3.5,-,N/A,,Clear,40,2013-10-07 03:53:00
8:53 PM,41.0,36.0,82,29.57,10.0,NNE,4.6,-,N/A,,Clear,30,2013-10-07 04:53:00
9:53 PM,41.0,36.0,82,29.57,10.0,NNE,4.6,-,N/A,,Clear,30,2013-10-07 05:53:00
10:53 PM,39.9,36.0,86,29.57,10.0,NNE,3.5,-,N/A,,Clear,20,2013-10-07 06:53:00
11:53 PM,39.0,36.0,89,29.56,-9999.0,Calm,Calm,-,N/A,,Clear,0,2013-10-07 07:53:00